Other Public Products
Issued by NWS Charleston, SC

Home | Current Version | Previous Version | Text Only | Print | Product List | Glossary On
Versions: 1 2 3 4 5 6 7 8 9 10 11 12 13 14 15 16 17 18 19 20 21 22 23 24 25 26 27 28 29 30 31 32 33 34 35 36 37 38 39 40 41 42 43 44 45 46 47 48 49 50
000
FPUS82 KCHS 211312
OPUCHS

TEST...KCHS/KSAV Gateway Observations...TEST
National Weather Service Charleston SC
900 AM EDT MON AUG 21 2017

NOTE: "fair" indicates few or no clouds below 12,000 feet with no
significant weather and/or obstructions to visibility.

SCZ050-WAZ558-NCZ071-TXZ119-213-PAZ071-DCZ001-FLZ074-172-MI076-
NYZ176-178-MAZ016-IL014-TNZ027-NJZ106-GAZ044-MD014-211400-

...Gateway Observations for Charleston International...

CITY           SKY/WX    TMP DP  RH WIND       PRES   REMARKS
Chas Airport   PTSUNNY   83  79  88 N5        30.17S HX  94
Seattle        PTCLDY    60  54  80 N9        30.12S
Charlotte      MOSUNNY   83  75  77 CALM      30.23R HX  90
Dallas DFW     SUNNY     82  72  71 S7        30.05R
Dallas Love    SUNNY     81  72  74 S7        30.06R
Philladelphia  PTSUNNY   76  65  68 CALM      30.21F
Wash National  MOSUNNY   78  74  87 S8        30.20F
Baltimore      PTSUNNY   77  72  84 S5        30.19F
Miami          MOSUNNY   87  75  67 E14       30.07R HX  96
Detroit        PTSUNNY   75  70  84 CALM      30.12S
Newark         PTSUNNY   77  64  64 W6        30.20S
Laguardia      MOSUNNY   80  62  54 W8        30.19S
J F K          PTSUNNY   79  67  66 SW7       30.21S
Boston Logan   MOSUNNY   76  60  57 NW6       30.16F
Ft. Lauderdale MOSUNNY   87  75  67 E18       30.06R HX  96
Chicago O`Hare CLOUDY    73  68  84 SW5       30.05S
Chicago Midway CLOUDY    75  70  84 SW9       30.05S
Houston Bush   MOSUNNY   81  78  91 CALM      30.05R
Houston Hobby  MOSUNNY   81  76  84 CALM      30.05R
Nashville      MOSUNNY   78  71  79 CALM      30.18R
Atlanta        MOSUNNY   80  72  76 NE7       30.20R

$$

GAZ044-118-TXZ119-213-NCZ071-DCZ001-MDZ014-506-PAZ021-071-NJZ106-
NYZ176-178-MAZ106-OHZ011-021-055-MIZ076-KYZ091-ILZ014-INZ047-
MNZ060-ONZ431-211400-

...Gateway Observations for Savannah International...

CITY           SKY/WX    TMP DP  RH WIND       PRES   REMARKS
Savannah Arpt  CLOUDY    86  78  77 NE7       30.17S HX  98
Atlanta        MOSUNNY   80  72  76 NE7       30.20R
Charlotte      MOSUNNY   83  75  77 CALM      30.23R HX  90
Dallas DFW     SUNNY     82  72  71 S7        30.05R
Houston Bush   MOSUNNY   81  78  91 CALM      30.05R
Wash National  MOSUNNY   78  74  87 S8        30.20F
Wash Dulles    PTSUNNY   77  73  87 S7        30.20F
Baltimore      PTSUNNY   77  72  84 S5        30.19F
Philadelphia   PTSUNNY   76  65  68 CALM      30.21F
Newark         PTSUNNY   77  64  64 W6        30.20S
Laguardia      MOSUNNY   80  62  54 W8        30.19S
J F K          PTSUNNY   79  67  66 SW7       30.21S
Boston         MOSUNNY   76  60  57 NW6       30.16F
Pittsburg      PTSUNNY   71  66  84 SE3       30.19R
Akron          CLOUDY    76  66  71 SW8       30.18R
Cleveland      PTSUNNY   79  67  66 SW7       30.16R
Cincinnati     MOSUNNY   76  70  82 S6        30.16F
Columbus       CLOUDY    73  70  89 S7        30.16S
Detroit        PTSUNNY   75  70  84 CALM      30.12S
Chicago O`Hare CLOUDY    73  68  84 SW5       30.05S
Minneapolis    CLOUDY    68  59  73 SE5       30.04S
Indianapolis   CLOUDY    76  69  79 S6        30.12S
Toronto Canada MOSUNNY   73  63  68 VRB2      30.10F

$$




USA.gov is the U.S. government's official web portal to all federal, state and local government web resources and services.